GW6509 Weather Reports


time (UTC)temp
F
wind
direction
speed
knots
gust
knots
rain 1hr
in
rain 24hr
in
rain mn
in
humidity
%
barometer
mb
20260906181346 99 78 1.7 1.7 0.00 0.00 0.00 40 1015.0
20260906180841 99 1 0.9 0.9 0.00 0.00 0.00 41 1014.9
20260906180335 99 37 0.9 0.9 0.00 0.00 0.00 38 1015.0
20260906175833 99 34 0.9 0.9 0.00 0.00 0.00 40 1015.1
20260906175328 98 101 0.0 0.9 0.00 0.00 0.00 42 1015.4
20260906174828 98 340 0.9 0.9 0.00 0.00 0.00 43 1015.3
20260906174327 98 109 1.7 1.7 0.00 0.00 0.00 42 1015.4
20260906173822 98 103 1.7 1.7 0.00 0.00 0.00 42 1015.4
20260906173318 98 84 2.6 2.6 0.00 0.00 0.00 42 1015.6
20260906172816 98 92 1.7 1.7 0.00 0.00 0.00 42 1015.6
20260906172313 98 149 1.7 1.7 0.00 0.00 0.00 43 1015.7
20260906171813 98 28 0.9 0.9 0.00 0.00 0.00 43 1015.8
20260906171308 98 104 1.7 1.7 0.00 0.00 0.00 44 1015.8
20260906170804 98 355 0.0 0.9 0.00 0.00 0.00 45 1016.0
20260906170300 97 60 1.7 1.7 0.00 0.00 0.00 45 1016.0
20260906165756 98 112 1.7 1.7 0.00 0.00 0.00 44 1016.0
20260906165256 97 329 0.0 0.0 0.00 0.00 0.00 45 1016.0
20260906164755 97 12 0.9 0.9 0.00 0.00 0.00 44 1016.1
20260906164250 98 86 1.7 2.6 0.00 0.00 0.00 45 1016.1
20260906163746 98 56 0.9 0.9 0.00 0.00 0.00 46 1016.2
20260906163242 97 104 0.9 0.9 0.00 0.00 0.00 46 1016.3
20260906162739 97 74 1.7 1.7 0.00 0.00 0.00 46 1016.0
20260906162233 96 78 2.6 2.6 0.00 0.00 0.00 48 1016.1
20260906161733 96 102 0.9 1.7 0.00 0.00 0.00 48 1016.0
20260906161232 96 76 0.9 0.9 0.00 0.00 0.00 47 1016.0
20260906160732 96 84 2.6 2.6 0.00 0.00 0.00 46 1016.1
20260906160231 95 14 0.9 0.9 0.00 0.00 0.00 49 1016.2
20260906155729 95 111 1.7 1.7 0.00 0.00 0.00 49 1016.2
20260906155224 94 335 0.0 0.9 0.00 0.00 0.00 51 1016.1
20260906154720 93 102 1.7 2.6 0.00 0.00 0.00 51 1015.8
20260906154214 93 121 1.7 2.6 0.00 0.00 0.00 51 1016.0
20260906153712 93 43 0.9 0.9 0.00 0.00 0.00 51 1015.9
20260906153208 93 51 0.0 0.9 0.00 0.00 0.00 51 1015.8
20260906152703 93 85 1.7 2.6 0.00 0.00 0.00 52 1016.0
20260906152203 92 331 0.0 0.0 0.00 0.00 0.00 54 1015.7
20260906151657 92 99 1.7 2.6 0.00 0.00 0.00 53 1015.9
20260906151153 92 32 0.9 0.9 0.00 0.00 0.00 54 1015.9
20260906150648 91 59 0.9 0.9 0.00 0.00 0.00 54 1015.8
20260906150144 90 75 0.9 1.7 0.00 0.00 0.00 56 1015.9
20260906145643 90 51 2.6 3.5 0.00 0.00 0.00 56 1015.7
20260906145142 90 85 0.9 1.7 0.00 0.00 0.00 56 1015.9
20260906144637 90 109 3.5 3.5 0.00 0.00 0.00 56 1015.9
20260906144132 89 71 1.7 1.7 0.00 0.00 0.00 57 1016.0
20260906143632 87 87 0.9 1.7 0.00 0.00 0.00 59 1016.0
20260906143129 87 100 1.7 2.6 0.00 0.00 0.00 59 1015.9
20260906142628 86 28 0.9 0.9 0.00 0.00 0.00 61 1016.1
20260906142124 86 68 0.0 0.9 0.00 0.00 0.00 61 1015.9
20260906141622 85 75 0.9 1.7 0.00 0.00 0.00 62 1015.9
20260906141118 85 98 2.6 3.5 0.00 0.00 0.00 62 1015.8
20260906140617 85 48 0.9 1.7 0.00 0.00 0.00 62 1016.0
20260906140112 85 38 0.9 0.9 0.00 0.00 0.00 63 1015.9
20260906135609 84 89 1.7 1.7 0.00 0.00 0.00 63 1015.7
20260906135105 84 36 0.0 0.9 0.00 0.00 0.00 64 1015.7
20260906134600 84 101 1.7 1.7 0.00 0.00 0.00 64 1015.8
20260906134100 83 43 0.9 0.9 0.00 0.00 0.00 65 1015.7
20260906133556 83 84 0.9 1.7 0.00 0.00 0.00 65 1015.7
20260906133051 83 47 0.9 0.9 0.00 0.00 0.00 66 1015.7
20260906132546 82 58 0.9 0.9 0.00 0.00 0.00 66 1015.7
20260906132041 82 18 0.0 0.9 0.00 0.00 0.00 66 1015.5
20260906131537 82 80 1.7 1.7 0.00 0.00 0.00 66 1015.4
20260906131032 82 96 1.7 2.6 0.00 0.00 0.00 67 1015.3
20260906130531 81 77 1.7 1.7 0.00 0.00 0.00 67 1015.3
20260906130027 81 68 1.7 1.7 0.00 0.00 0.00 67 1015.3
20260906125525 81 82 1.7 1.7 0.00 0.00 0.00 68 1015.2
20260906125024 81 74 0.9 0.9 0.00 0.00 0.00 68 1015.1
20260906124520 80 71 1.7 1.7 0.00 0.00 0.00 68 1015.1
20260906124015 80 91 0.9 0.9 0.00 0.00 0.00 69 1015.0
20260906123514 80 89 1.7 1.7 0.00 0.00 0.00 69 1015.2
20260906123009 80 98 1.7 2.6 0.00 0.00 0.00 70 1014.8
20260906122503 79 75 0.9 0.9 0.00 0.00 0.00 70 1014.9
20260906121959 79 62 0.9 1.7 0.00 0.00 0.00 70 1014.9
20260906121455 79 97 0.9 0.9 0.00 0.00 0.00 70 1014.7
20260906120952 79 97 0.9 0.9 0.00 0.00 0.00 70 1014.7
20260906120447 79 71 0.9 0.9 0.00 0.00 0.00 70 1014.7
20260906115943 80 87 0.9 1.7 0.00 0.00 0.00 70 1014.8
20260906115438 80 88 0.9 1.7 0.00 0.00 0.00 70 1014.9
20260906114939 80 63 0.9 1.7 0.00 0.00 0.00 70 1014.8
20260906114438 80 85 1.7 1.7 0.00 0.00 0.00 70 1014.6
20260906113934 80 89 1.7 1.7 0.00 0.00 0.00 69 1014.7
20260906113432 80 83 1.7 1.7 0.00 0.00 0.00 69 1014.8
20260906112928 80 99 1.7 2.6 0.00 0.00 0.00 69 1014.7
20260906112424 80 85 0.9 1.7 0.00 0.00 0.00 69 1014.7
20260906111919 80 71 1.7 1.7 0.00 0.00 0.00 69 1014.6
20260906111419 80 108 1.7 2.6 0.00 0.00 0.00 69 1014.8
20260906110914 80 120 1.7 1.7 0.00 0.00 0.00 68 1014.5
20260906110409 80 60 1.7 1.7 0.00 0.00 0.00 68 1014.5
20260906105908 80 88 1.7 1.7 0.00 0.00 0.00 68 1014.4
20260906105404 80 77 0.9 1.7 0.00 0.00 0.00 68 1014.5
20260906104900 80 100 0.9 0.9 0.00 0.00 0.00 68 1014.6
20260906104358 81 97 1.7 1.7 0.00 0.00 0.00 68 1014.5
20260906103857 80 78 0.9 1.7 0.00 0.00 0.00 68 1014.5
20260906103355 80 62 0.9 0.9 0.00 0.00 0.00 68 1014.5
20260906102852 81 69 0.9 0.9 0.00 0.00 0.00 68 1014.3
20260906102350 81 90 0.9 0.9 0.00 0.00 0.00 68 1014.3
20260906101846 81 47 0.9 0.9 0.00 0.00 0.00 67 1014.3
20260906101341 81 49 0.0 0.9 0.00 0.00 0.00 67 1014.5
20260906100837 81 43 0.0 0.9 0.00 0.00 0.00 67 1014.5
20260906100335 81 59 0.9 0.9 0.00 0.00 0.00 67 1014.2
20260906095831 81 43 0.9 0.9 0.00 0.00 0.00 67 1014.3
20260906095326 81 56 0.0 0.9 0.00 0.00 0.00 67 1014.3
20260906094826 81 54 0.9 0.9 0.00 0.00 0.00 67 1014.2
20260906094320 81 45 0.9 0.9 0.00 0.00 0.00 67 1014.1
20260906093817 81 103 0.9 0.9 0.00 0.00 0.00 67 1014.2
20260906093313 81 71 0.9 0.9 0.00 0.00 0.00 67 1014.3
20260906092808 81 51 0.0 0.9 0.00 0.00 0.00 67 1014.3
20260906092307 82 76 0.9 0.9 0.00 0.00 0.00 66 1014.2
20260906091803 82 56 0.9 0.9 0.00 0.00 0.00 66 1014.3
20260906091259 82 64 0.9 0.9 0.00 0.00 0.00 65 1014.4
20260906090755 82 36 0.0 0.9 0.00 0.00 0.00 65 1014.1
20260906090254 82 61 0.9 0.9 0.00 0.00 0.00 65 1014.3
20260906085754 82 45 0.0 0.9 0.00 0.00 0.00 65 1014.1
20260906085253 82 39 0.0 0.0 0.00 0.00 0.00 65 1014.0
20260906084748 82 59 0.9 0.9 0.00 0.00 0.00 65 1014.0
20260906084248 82 44 0.9 0.9 0.00 0.00 0.00 66 1013.9
20260906083743 82 40 0.0 0.9 0.00 0.00 0.00 66 1013.9
20260906083238 82 70 0.0 0.9 0.00 0.00 0.00 65 1013.9
20260906082733 82 44 0.0 0.9 0.00 0.00 0.00 65 1013.9
20260906082228 82 30 0.0 0.0 0.00 0.00 0.00 64 1013.8
20260906081724 82 30 0.0 0.0 0.00 0.00 0.00 63 1014.0
20260906081219 82 29 0.0 0.0 0.00 0.00 0.00 64 1013.9
20260906080716 82 29 0.0 0.0 0.00 0.00 0.00 64 1013.9
20260906080212 81 16 0.0 0.0 0.00 0.00 0.00 65 1013.9
20260906075712 81 16 0.0 0.0 0.00 0.00 0.00 66 1014.0
20260906075206 81 16 0.0 0.0 0.00 0.00 0.00 66 1013.8
20260906074701 82 16 0.0 0.0 0.00 0.00 0.00 66 1013.8
20260906074200 82 16 0.0 0.0 0.00 0.00 0.00 64 1013.8
20260906073655 82 17 0.0 0.0 0.00 0.00 0.00 64 1013.8
20260906073151 82 14 0.0 0.0 0.00 0.00 0.00 64 1013.9
20260906072647 83 14 0.0 0.0 0.00 0.00 0.00 63 1013.8
20260906072142 83 25 0.0 0.0 0.00 0.00 0.00 63 1013.7
20260906071638 83 26 0.0 0.0 0.00 0.00 0.00 62 1013.9
20260906071138 84 31 0.0 0.0 0.00 0.00 0.00 62 1013.9
20260906070635 84 57 0.0 0.9 0.00 0.00 0.00 62 1013.8
20260906070130 84 61 0.9 1.7 0.00 0.00 0.00 62 1013.8
20260906065630 84 57 0.9 0.9 0.00 0.00 0.00 62 1014.0
20260906065125 84 45 0.0 0.9 0.00 0.00 0.00 62 1014.2
20260906064620 84 51 0.0 0.9 0.00 0.00 0.00 62 1014.0
20260906064115 84 55 0.0 0.9 0.00 0.00 0.00 61 1014.3
20260906063610 84 37 0.0 0.9 0.00 0.00 0.00 61 1014.0
20260906063106 84 32 0.0 0.9 0.00 0.00 0.00 61 1014.2
20260906062602 84 32 0.0 0.0 0.00 0.00 0.00 61 1014.2
20260906062101 84 52 0.9 0.9 0.00 0.00 0.00 60 1014.1
20260906061557 85 74 0.9 1.7 0.00 0.00 0.00 60 1014.0
20260906061056 85 65 0.0 0.9 0.00 0.00 0.00 60 1014.1
20260906060553 85 87 0.9 1.7 0.00 0.00 0.00 60 1014.2
20260906060050 85 43 0.0 0.9 0.00 0.00 0.00 59 1014.2
20260906055546 85 32 0.0 0.0 0.00 0.00 0.00 59 1014.2
20260906055041 85 41 0.9 0.9 0.00 0.00 0.00 59 1014.2
20260906054541 85 36 0.0 0.0 0.00 0.00 0.00 59 1014.5
20260906054036 85 40 0.0 0.9 0.00 0.00 0.00 59 1014.5
20260906053532 86 60 0.9 0.9 0.00 0.00 0.00 59 1014.6
20260906053028 86 40 0.9 0.9 0.00 0.00 0.00 58 1014.4
20260906052523 86 39 0.0 0.9 0.00 0.00 0.00 58 1014.3
20260906052020 86 85 0.9 0.9 0.00 0.00 0.00 58 1014.4
20260906051516 86 51 0.9 0.9 0.00 0.00 0.00 58 1014.5
20260906051011 86 80 0.9 1.7 0.00 0.00 0.00 58 1014.3
20260906050506 86 73 0.9 1.7 0.00 0.00 0.00 58 1014.3
20260906050006 86 43 0.0 0.9 0.00 0.00 0.00 59 1014.2
20260906045504 86 56 0.0 0.9 0.00 0.00 0.00 59 1014.3
20260906045000 86 30 0.0 0.9 0.00 0.00 0.00 59 1014.4
20260906044455 86 29 0.0 0.9 0.00 0.00 0.00 59 1014.2
20260906043951 86 32 0.0 0.9 0.00 0.00 0.00 59 1014.2
20260906043446 86 66 0.9 0.9 0.00 0.00 0.00 59 1014.5
20260906042942 87 47 0.9 0.9 0.00 0.00 0.00 59 1014.2
20260906042441 87 55 0.9 0.9 0.00 0.00 0.00 58 1014.3
20260906041936 87 65 0.9 1.7 0.00 0.00 0.00 57 1014.1
20260906041432 87 102 0.9 0.9 0.00 0.00 0.00 57 1014.1
20260906040932 87 99 1.7 1.7 0.00 0.00 0.00 57 1014.0
20260906040427 87 60 0.9 0.9 0.00 0.00 0.00 57 1014.1
20260906035922 87 35 0.0 0.0 0.00 0.00 0.00 57 1014.2
20260906035418 88 74 0.9 0.9 0.00 0.00 0.00 56 1014.1
20260906034913 88 124 0.9 1.7 0.00 0.00 0.00 56 1014.0
20260906034413 88 74 0.9 0.9 0.00 0.00 0.00 56 1013.9
20260906033908 88 60 1.7 1.7 0.00 0.00 0.00 56 1014.0
20260906033408 88 71 0.9 1.7 0.00 0.00 0.00 56 1013.9
20260906032904 88 82 0.9 1.7 0.00 0.00 0.00 56 1013.8
20260906032400 88 76 1.7 1.7 0.00 0.00 0.00 56 1013.8
20260906031855 88 76 0.9 0.9 0.00 0.00 0.00 57 1013.8
20260906031350 88 44 0.9 0.9 0.00 0.00 0.00 57 1013.8
20260906030846 88 56 0.9 0.9 0.00 0.00 0.00 56 1013.9
20260906030341 89 28 0.0 0.0 0.00 0.00 0.00 56 1013.7
20260906025840 89 38 0.0 0.9 0.00 0.00 0.00 55 1013.7
20260906025334 89 57 0.9 0.9 0.00 0.00 0.00 55 1013.6
20260906024834 89 70 0.9 1.7 0.00 0.00 0.00 54 1013.4
20260906024333 90 75 0.9 1.7 0.00 0.00 0.00 54 1013.1
20260906023829 90 83 0.9 0.9 0.00 0.00 0.00 54 1013.4
20260906023325 90 79 1.7 1.7 0.00 0.00 0.00 53 1013.4
20260906022820 90 76 1.7 1.7 0.00 0.00 0.00 53 1013.1
20260906022315 90 47 1.7 2.6 0.00 0.00 0.00 53 1013.1
20260906021811 91 56 1.7 2.6 0.00 0.00 0.00 53 1013.0
20260906021310 91 67 0.9 0.9 0.00 0.00 0.00 52 1013.0
20260906020810 91 96 1.7 1.7 0.00 0.00 0.00 52 1013.0
20260906020310 91 94 0.9 0.9 0.00 0.00 0.00 52 1012.7
20260906015809 91 92 0.9 0.9 0.00 0.00 0.00 51 1012.9
20260906015309 91 112 0.0 0.9 0.00 0.00 0.00 51 1012.7
20260906014808 91 67 1.7 1.7 0.00 0.00 0.00 51 1012.7
20260906014304 91 92 1.7 1.7 0.00 0.00 0.00 51 1012.7
20260906013801 91 89 1.7 1.7 0.00 0.00 0.00 51 1012.5
20260906013301 92 116 0.9 1.7 0.00 0.00 0.00 51 1012.4
20260906012756 92 102 1.7 1.7 0.00 0.00 0.00 50 1012.4
20260906012251 92 76 0.9 1.7 0.00 0.00 0.00 50 1012.5
20260906011746 92 42 0.0 0.9 0.00 0.00 0.00 50 1012.4
20260906011246 93 36 0.0 0.9 0.00 0.00 0.00 49 1012.4
20260906010742 93 52 0.9 0.9 0.00 0.00 0.00 49 1012.2
20260906010238 93 84 0.9 0.9 0.00 0.00 0.00 48 1012.4
20260906005733 93 53 0.9 0.9 0.00 0.00 0.00 48 1012.3
20260906005232 93 108 1.7 1.7 0.00 0.00 0.00 47 1012.2
20260906004731 93 110 0.9 1.7 0.00 0.00 0.00 47 1012.3
20260906004226 93 23 0.0 0.9 0.00 0.00 0.00 46 1012.3
20260906003721 92 106 0.9 0.9 0.00 0.00 0.00 45 1012.4
20260906003217 92 341 0.0 0.0 0.00 0.00 0.00 43 1012.3
20260906002717 93 341 0.0 0.0 0.00 0.00 0.00 43 1012.2
20260906002212 93 341 0.0 0.0 0.00 0.00 0.00 43 1012.2
20260906001707 93 341 0.0 0.0 0.00 0.00 0.00 42 1012.2
20260906001207 94 341 0.0 0.0 0.00 0.00 0.00 41 1012.3
20260906000703 94 334 0.0 0.9 0.00 0.00 0.00 41 1012.1
20260906000158 95 325 0.0 0.0 0.00 0.00 0.00 41 1012.0
20260905235656 95 325 0.0 0.0 0.00 0.00 0.00 40 1012.3
20260905235152 95 325 0.0 0.0 0.00 0.00 0.00 39 1012.2
20260905234647 96 347 0.0 0.0 0.00 0.00 0.00 39 1012.2
20260905234143 96 347 0.0 0.0 0.00 0.00 0.00 38 1012.0
20260905233638 97 340 0.0 0.0 0.00 0.00 0.00 39 1012.1
20260905233137 97 336 0.0 0.0 0.00 0.00 0.00 37 1012.2
20260905232632 97 27 0.9 0.9 0.00 0.00 0.00 37 1012.2
20260905232129 97 19 0.0 0.0 0.00 0.00 0.00 36 1012.0
20260905231629 98 326 0.0 0.0 0.00 0.00 0.00 37 1012.1
20260905231125 98 97 2.6 2.6 0.00 0.00 0.00 36 1012.1
20260905230621 98 95 1.7 1.7 0.00 0.00 0.00 36 1012.1
20260905230119 98 101 0.9 1.7 0.00 0.00 0.00 36 1011.9
20260905225618 98 41 0.9 0.9 0.00 0.00 0.00 36 1012.2
20260905225114 98 359 0.0 0.9 0.00 0.00 0.00 36 1012.0
20260905224613 99 75 1.7 1.7 0.00 0.00 0.00 36 1012.0
20260905224113 99 32 0.0 0.0 0.00 0.00 0.00 36 1012.0
20260905223610 99 14 0.0 0.9 0.00 0.00 0.00 35 1012.0
20260905223106 99 87 0.9 0.9 0.00 0.00 0.00 36 1012.3
20260905222606 99 31 0.0 0.0 0.00 0.00 0.00 36 1012.1
20260905222101 100 87 2.6 2.6 0.00 0.00 0.00 34 1012.1
20260905221558 100 161 0.9 0.9 0.00 0.00 0.00 35 1012.3
20260905221054 101 62 1.7 2.6 0.00 0.00 0.00 34 1012.3
20260905220549 101 318 0.9 0.9 0.00 0.00 0.00 34 1012.5
20260905220045 101 14 0.9 0.9 0.00 0.00 0.00 33 1012.4
20260905215544 101 352 0.9 1.7 0.00 0.00 0.00 33 1012.4
20260905215040 101 328 0.9 0.9 0.00 0.00 0.00 33 1012.5
20260905214537 102 105 0.9 1.7 0.00 0.00 0.00 33 1012.5
20260905214037 102 324 0.9 0.9 0.00 0.00 0.00 32 1012.5
20260905213532 102 55 0.0 0.9 0.00 0.00 0.00 32 1012.5
20260905213027 102 17 0.0 0.9 0.00 0.00 0.00 32 1012.5
20260905212522 103 14 0.9 1.7 0.00 0.00 0.00 32 1012.7
20260905212021 102 65 0.9 0.9 0.00 0.00 0.00 32 1012.9
20260905211517 101 353 0.0 0.0 0.00 0.00 0.00 32 1012.8
20260905211013 101 97 1.7 2.6 0.00 0.00 0.00 33 1013.1
20260905210508 102 133 0.9 0.9 0.00 0.00 0.00 32 1012.9
20260905210008 103 341 0.0 0.0 0.00 0.00 0.00 32 1012.9
20260905205503 103 83 1.7 1.7 0.00 0.00 0.00 32 1013.0
20260905205001 102 330 0.0 0.0 0.00 0.00 0.00 33 1013.0
20260905204457 102 324 0.0 0.0 0.00 0.00 0.00 33 1013.1
20260905203956 103 302 0.0 0.9 0.00 0.00 0.00 34 1013.4
20260905203452 103 331 0.0 0.9 0.00 0.00 0.00 33 1013.5
20260905202947 101 300 0.0 0.0 0.00 0.00 0.00 34 1013.5
20260905202442 99 323 0.9 0.9 0.00 0.00 0.00 36 1013.7
20260905201938 101 7 0.0 0.9 0.00 0.00 0.00 34 1013.5
20260905201433 102 4 0.0 0.0 0.00 0.00 0.00 33 1013.7
20260905200933 104 358 0.0 0.0 0.00 0.00 0.00 31 1013.7
20260905200429 104 346 0.9 1.7 0.00 0.00 0.00 31 1013.8
20260905195927 104 257 1.7 1.7 0.00 0.00 0.00 31 1014.0
20260905195422 103 340 0.9 0.9 0.00 0.00 0.00 32 1013.8
20260905194918 103 133 1.7 1.7 0.00 0.00 0.00 33 1013.8
20260905194417 104 6 0.9 0.9 0.00 0.00 0.00 31 1014.0
20260905193917 104 322 0.9 0.9 0.00 0.00 0.00 32 1014.0
20260905193412 103 316 0.9 0.9 0.00 0.00 0.00 33 1014.2
20260905192907 102 19 0.9 0.9 0.00 0.00 0.00 33 1014.0
20260905192403 102 158 1.7 2.6 0.00 0.00 0.00 33 1014.2
20260905191903 103 300 0.9 0.9 0.00 0.00 0.00 33 1014.0
20260905191402 103 204 0.9 1.7 0.00 0.00 0.00 32 1014.1
20260905190856 102 231 0.9 0.9 0.00 0.00 0.00 35 1014.3
20260905190354 103 37 0.9 0.9 0.00 0.00 0.00 34 1014.2
20260905185853 102 7 0.9 0.9 0.00 0.00 0.00 33 1014.1
20260905185349 103 341 0.9 0.9 0.00 0.00 0.00 34 1014.5
20260905184847 102 310 0.0 0.9 0.00 0.00 0.00 35 1014.3
20260905184347 102 56 0.9 0.9 0.00 0.00 0.00 34 1014.6
20260905183845 101 166 0.0 0.9 0.00 0.00 0.00 34 1014.7
20260905183341 102 26 0.0 0.9 0.00 0.00 0.00 34 1014.7
20260905182842 102 61 0.9 1.7 0.00 0.00 0.00 33 1014.7
20260905182341 102 68 0.9 1.7 0.00 0.00 0.00 34 1014.8
20260905181837 102 71 1.7 1.7 0.00 0.00 0.00 34 1015.0